Regional Weather Roundup
Issued by NWS Kansas City/Pleasant Hill, MO

Home | Current Version | Previous Version | Text Only | Print | Product List | Glossary On
Versions: 1 2 3 4 5 6 7 8 9 10 11 12 13 14 15 16 17 18 19 20 21 22 23 24 25 26 27 28 29 30 31 32 33 34 35 36 37 38 39 40 41 42 43 44 45 46 47 48 49 50
000
ASUS43 KEAX 011010
RWREAX

WEATHER ROUNDUP FOR EASTERN KANSAS AND NORTHWEST MISSOURI
NATIONAL WEATHER SERVICE KANSAS CITY/PLEASANT HILL MO
500 AM CDT TUE SEP 01 2015

KSZ040-057-103>105-MOZ028-029-037-043-011100-
...KANSAS CITY METROPOLITAN AREA...

CITY           SKY/WX    TMP DP  RH WIND       PRES   REMARKS
K.C. INTL      CLEAR     73  68  84 S10       30.00S
K.C. DOWNTOWN  CLEAR     77  68  73 S9        29.99S
LEES SUMMIT    CLEAR     74  68  81 S8        30.02R
OLATHE - IXD   CLEAR     71  69  93 S9        30.02R
OLATHE - OJC   CLEAR     71  68  90 S6        30.01S
LAWRENCE       CLEAR     71  68  90 SE6       30.00R

$$

MOZ001>008-011>017-020>025-030>033-038>040-044>046-053-054-011100-
...NORTHERN AND CENTRAL MISSOURI...

CITY           SKY/WX    TMP DP  RH WIND       PRES   REMARKS
ST. JOSEPH     CLEAR     71  69  93 S7        29.98S
MOSBY          SUNNY     70  68  94 SE5       30.00S
WARRENSBURG    CLEAR     72  66  83 S6        30.02S
WHITEMAN AFB   CLEAR     70  67  90 S5        30.02S
CLINTON        CLEAR     72  68  88 CALM      30.04S
SEDALIA        CLEAR     72  67  84 S7        30.05S
WARSAW         NOT AVBL
CHILLICOTHE      N/A     69  67  93 CALM      30.02R
KIRKSVILLE     CLEAR     71  67  87 S6        30.04R

$$

MOZ041-047>049-056>058-063>065-088>090-097-011100-
...EASTERN AND SOUTHERN MISSOURI...

CITY           SKY/WX    TMP DP  RH WIND       PRES   REMARKS
ST. LOUIS INTL CLEAR     76  69  79 S5        30.08R
SPIRIT OF STL  CLEAR     70  70 100 CALM      30.06R FOG
COLUMBIA       CLEAR     70  68  93 S8        30.06R
JEFFERSON CITY CLEAR     72  68  87 E5        30.06R
ROLLA          CLEAR     71  68  90 S9        30.08R
OSAGE BEACH    CLEAR     70  66  88 SE6       30.08R
SPRINGFIELD    CLEAR     71  66  84 S8        30.08R
BRANSON        CLEAR     68  66  94 CALM      30.10S
JOPLIN         CLEAR     72  66  81 S8        30.06R
WEST PLAINS    CLEAR     70  67  90 CALM      30.12S

$$

IAZ060-094-KSZ022-034>040-054-083-096-NEZ052-066-093-011100-
...KANSAS...SOUTHEAST NEBRASKA AND IOWA...

CITY           SKY/WX    TMP DP  RH WIND       PRES   REMARKS
TOPEKA         CLEAR     75  69  81 S5        29.98S
MANHATTAN      CLEAR     70  66  87 CALM      29.97R
EMPORIA        CLEAR     70  66  87 S12       30.00R
CHANUTE        CLEAR     70  67  90 S6        30.02R
WICHITA        PTCLDY    69  63  81 S8        30.00S
OMAHA          CLEAR     70  68  93 S8        29.92F
LINCOLN        CLEAR     71  66  84 S10       29.92S
FALLS CITY     CLEAR     72  68  87 S8        29.95S
LAMONI         CLEAR     70  67  90 S8        29.99S
DES MOINES     CLEAR     71  67  87 S8        29.96R

$$



USA.gov is the U.S. government's official web portal to all federal, state and local government web resources and services.